Date,TemperatureHighF,TemperatureAvgF,TemperatureLowF,DewpointHighF,DewpointAvgF,DewpointLowF,HumidityHigh,HumidityAvg,HumidityLow,PressureMaxIn,PressureMinIn,WindSpeedMaxMPH,WindSpeedAvgMPH,GustSpeedMaxMPH,PrecipitationSumIn
2013-1-1,46,41,37,40,38,34,96,90,79,29.91,29.28,7,2,11,0.00
2013-1-2,55,48,41,54,47,40,99,97,90,30.02,29.91,8,2,17,0.00
2013-1-3,54,53,51,53,51,49,99,94,86,30.40,30.01,10,3,15,0.00
2013-1-4,53,51,48,52,49,46,99,95,86,30.47,30.39,7,2,11,0.00
2013-1-5,52,47,39,51,46,39,99,95,86,30.45,30.27,8,2,17,0.00
2013-1-6,52,46,38,50,45,38,99,94,85,30.46,30.19,6,1,13,0.00
2013-1-7,50,49,48,50,49,48,99,98,92,30.19,30.01,5,1,13,0.00
2013-1-8,55,49,42,54,48,41,99,96,87,30.16,29.98,7,2,11,0.00
2013-1-9,50,42,37,45,40,37,99,95,82,30.16,30.05,5,1,8,0.00
2013-1-10,42,40,36,42,40,36,99,99,99,30.05,29.95,3,0,7,0.00
2013-1-11,42,38,33,42,38,33,99,99,97,30.03,29.97,2,0,4,0.00
2013-1-12,42,37,29,40,35,29,99,95,84,30.11,29.96,2,0,6,0.00
2013-1-13,37,34,31,37,34,31,99,98,92,30.15,29.98,5,1,8,0.00
2013-1-14,41,35,28,39,33,28,99,93,84,29.98,29.74,4,1,8,0.00
2013-1-15,42,32,24,41,32,24,99,99,97,29.93,29.82,5,0,9,0.00
2013-1-16,33,28,22,32,27,21,99,95,85,29.99,29.86,0,0,0,0.00
2013-1-17,36,33,31,30,27,24,87,80,63,30.01,29.82,7,1,14,0.00
2013-1-18,40,33,29,32,27,22,99,81,61,29.82,29.58,6,1,13,0.00
2013-1-19,44,33,26,39,31,24,99,93,72,29.74,29.60,4,0,9,0.00
2013-1-20,35,34,32,32,30,27,98,85,77,29.73,29.55,4,1,9,0.00
2013-1-21,35,34,33,35,32,29,99,93,78,29.55,29.50,7,3,15,0.00
2013-1-22,36,34,33,35,34,32,99,97,92,29.85,29.54,4,1,12,0.00
2013-1-23,38,34,29,36,33,29,99,96,87,29.97,29.85,2,0,4,0.00
2013-1-24,39,35,32,35,32,28,99,89,74,30.08,29.96,5,1,12,0.00
2013-1-25,37,36,34,36,32,29,99,88,76,29.98,29.39,5,1,11,0.00
2013-1-26,48,41,35,45,37,34,99,88,71,29.57,28.97,8,2,21,0.00
2013-1-27,50,43,39,48,40,34,99,89,77,29.19,28.78,8,3,15,0.00
2013-1-28,47,43,38,45,39,34,99,86,73,29.35,28.90,11,4,23,0.00
2013-1-29,53,47,44,53,43,37,99,87,71,29.34,28.95,9,4,20,0.00
2013-1-30,46,43,40,41,38,36,99,83,71,29.65,29.12,11,4,20,0.00
2013-1-31,46,42,38,42,40,36,99,92,81,29.67,29.22,10,3,19,0.00